H1 CPF 2 NER 2025 11 17 9 321 01 glonass137 H2 1705501 9137 42939 2025 11 17 0 0 0 2025 11 20 23 45 0 900 1 1 0 0 0 1 H9 10 0 60996 0.00000 0 -18138775.130 17098563.367 -5458756.368 10 0 60996 900.00000 0 -18437547.559 17491762.793 -2308981.416 10 0 60996 1800.00000 0 -18421938.492 17639014.335 885592.158 10 0 60996 2700.00000 0 -18127260.210 17499126.049 4062985.190 10 0 60996 3600.00000 0 -17597825.325 17040476.913 7161564.698 10 0 60996 4500.00000 0 -16884916.246 16242542.112 10121236.384 10 0 60996 5400.00000 0 -16044479.225 15096965.863 12884606.303 10 0 60996 6300.00000 0 -15134640.367 13608136.191 15398089.376 10 0 60996 7200.00000 0 -14213148.241 11793236.828 17612943.568 10 0 60996 8100.00000 0 -13334850.571 9681773.198 19486210.169 10 0 60996 9000.00000 0 -12549310.793 7314591.193 20981542.558 10 0 60996 9900.00000 0 -11898664.304 4742428.453 22069907.933 10 0 60996 10800.00000 0 -11415804.052 2024057.135 22730148.988 10 0 60996 11700.00000 0 -11122971.394 -775906.111 22949395.044 10 0 60996 12600.00000 0 -11030811.210 -3589433.375 22723314.850 10 0 60996 13500.00000 0 -11137931.058 -6347662.385 22056206.077 10 0 60996 14400.00000 0 -11430983.146 -8983511.409 20960919.389 10 0 60996 15300.00000 0 -11885266.215 -11434224.693 19458617.946 10 0 60996 16200.00000 0 -12465822.666 -13643743.585 17578376.132 10 0 60996 17100.00000 0 -13128985.490 -15564805.411 15356624.340 10 0 60996 18000.00000 0 -13824310.506 -17160683.047 12836449.590 10 0 60996 18900.00000 0 -14496812.935 -18406492.897 10066764.709 10 0 60996 19800.00000 0 -15089414.170 -19290016.731 7101361.511 10 0 60996 20700.00000 0 -15545495.287 -19812003.034 3997866.046 10 0 60996 21600.00000 0 -15811448.933 -19985935.412 816616.211 10 0 60996 22500.00000 0 -15839120.872 -19837278.064 -2380516.175 10 0 60996 23400.00000 0 -15588036.869 -19402230.552 -5531335.215 10 0 60996 24300.00000 0 -15027319.479 -18726045.003 -8574538.358 10 0 60996 25200.00000 0 -14137212.365 -17860977.559 -11450916.764 10 0 60996 26100.00000 0 -12910146.451 -16863961.457 -14104514.273 10 0 60996 27000.00000 0 -11351301.666 -15794100.916 -16483721.627 10 0 60996 27900.00000 0 -9478639.549 -14710092.492 -18542284.080 10 0 60996 28800.00000 0 -7322404.403 -13667683.391 -20240202.443 10 0 60996 29700.00000 0 -4924113.190 -12717274.387 -21544510.029 10 0 60996 30600.00000 0 -2335075.844 -11901768.533 -22429910.652 10 0 60996 31500.00000 0 385492.636 -11254756.116 -22879265.706 10 0 60996 32400.00000 0 3172690.011 -10799111.832 -22883921.462 10 0 60996 33300.00000 0 5958382.634 -10546062.558 -22443870.861 10 0 60996 34200.00000 0 8673797.576 -10494764.113 -21567747.225 10 0 60996 35100.00000 0 11252143.869 -10632403.946 -20272650.534 10 0 60996 36000.00000 0 13631154.641 -10934824.538 -18583809.960 10 0 60996 36900.00000 0 15755445.226 -11367640.509 -16534089.447 10 0 60996 37800.00000 0 17578590.149 -11887801.683 -14163346.033 10 0 60996 38700.00000 0 19064833.586 -12445535.729 -11517653.340 10 0 60996 39600.00000 0 20190363.114 -12986588.049 -8648405.317 10 0 60996 40500.00000 0 20944094.880 -13454664.144 -5611317.586 10 0 60996 41400.00000 0 21327938.585 -13793971.191 -2465345.748 10 0 60996 42300.00000 0 21356532.475 -13951751.348 728458.262 10 0 60996 43200.00000 0 21056460.606 -13880699.747 3908129.541 10 0 60996 44100.00000 0 20464986.312 -13541164.924 7011990.286 10 0 60996 45000.00000 0 19628355.926 -12903038.648 9979843.214 10 0 60996 45900.00000 0 18599744.691 -11947255.138 12754135.276 10 0 60996 46800.00000 0 17436931.580 -10666836.086 15281069.314 10 0 60996 47700.00000 0 16199800.876 -9067436.858 17511642.386 10 0 60996 48600.00000 0 14947775.337 -7167370.080 19402591.143 10 0 60996 49500.00000 0 13737288.401 -4997104.476 20917226.480 10 0 60996 50400.00000 0 12619401.020 -2598258.641 22026141.879 10 0 60996 51300.00000 0 11637662.536 -22130.190 22707782.240 10 0 60996 52200.00000 0 10826304.720 2672180.018 22948862.640 10 0 60996 53100.00000 0 10208844.216 5419972.184 22744629.034 10 0 60996 54000.00000 0 9797151.651 8153390.391 22098955.835 10 0 60996 54900.00000 0 9591026.329 10804003.937 21024278.100 10 0 60996 55800.00000 0 9578294.410 13305421.189 19541359.015 10 0 60996 56700.00000 0 9735426.684 15595828.318 17678896.371 10 0 60996 57600.00000 0 10028650.311 17620348.063 15472974.657 10 0 60996 58500.00000 0 10415508.108 19333120.645 12966372.464 10 0 60996 59400.00000 0 10846799.923 20699020.240 10207737.742 10 0 60996 60300.00000 0 11268824.327 21694935.277 7250646.255 10 0 60996 61200.00000 0 11625825.762 22310558.855 4152561.171 10 0 60996 62100.00000 0 11862543.251 22548656.077 973713.977 10 0 60996 63000.00000 0 11926752.109 22424797.053 -2224071.228 10 0 60996 63900.00000 0 11771690.030 21966567.014 -5378586.547 10 0 60996 64800.00000 0 11358263.679 21212287.141 -8428457.871 10 0 60996 65700.00000 0 10656941.037 20209300.626 -11314346.598 10 0 60996 66600.00000 0 9649248.147 19011896.921 -13980111.170 10 0 60996 67500.00000 0 8328805.658 17678962.528 -16373904.965 10 0 60996 68400.00000 0 6701860.248 16271458.134 -18449188.641 10 0 60996 69300.00000 0 4787287.446 14849829.074 -20165636.843 10 0 60996 70200.00000 0 2616064.810 13471458.638 -21489921.622 10 0 60996 71100.00000 0 230236.758 12188271.547 -22396357.571 10 0 60996 72000.00000 0 -2318586.260 11044588.249 -22867396.544 10 0 60996 72900.00000 0 -4971132.130 10075319.730 -22893962.964 10 0 60996 73800.00000 0 -7662696.101 9304577.909 -22475623.813 10 0 60996 74700.00000 0 -10325602.096 8744758.997 -21620590.599 10 0 60996 75600.00000 0 -12891794.448 8396137.163 -20345553.795 10 0 60996 76500.00000 0 -15295452.872 8246984.371 -18675353.290 10 0 60996 77400.00000 0 -17475522.519 8274210.177 -16642491.500 10 0 60996 78300.00000 0 -19378054.605 8444493.463 -14286498.693 10 0 60996 79200.00000 0 -20958260.993 8715857.491 -11653162.817 10 0 60996 80100.00000 0 -22182197.949 9039621.128 -8793638.771 10 0 60996 81000.00000 0 -23028009.788 9362643.289 -5763454.382 10 0 60996 81900.00000 0 -23486681.443 9629765.395 -2621432.319 10 0 60996 82800.00000 0 -23562269.486 9786348.335 571451.025 10 0 60996 83700.00000 0 -23271602.906 9780796.491 3753247.501 10 0 60996 84600.00000 0 -22643467.122 9566961.959 6862237.027 10 0 60996 85500.00000 0 -21717306.238 9106327.205 9838121.915 10 0 60997 0.00000 0 -20541498.724 8369873.821 12623192.375 10 0 60997 900.00000 0 -19171278.644 7339557.740 15163442.238 10 0 60997 1800.00000 0 -17666391.400 6009329.235 17409609.897 10 0 60997 2700.00000 0 -16088580.140 4385652.775 19318129.701 10 0 60997 3600.00000 0 -14499009.370 2487504.748 20851972.191 10 0 60997 4500.00000 0 -12955732.584 345847.571 21981358.973 10 0 60997 5400.00000 0 -11511309.368 -1997399.271 22684338.680 10 0 60997 6300.00000 0 -10210670.976 -4490849.998 22947213.299 10 0 60997 7200.00000 0 -9089322.980 -7075544.676 22764806.777 10 0 60997 8100.00000 0 -8171959.572 -9687165.729 22140570.665 10 0 60997 9000.00000 0 -7471547.052 -12258488.224 21086524.413 10 0 60997 9900.00000 0 -6988914.567 -14721963.410 19623030.849 10 0 60997 10800.00000 0 -6712869.139 -17012329.190 17778410.384 10 0 60997 11700.00000 0 -6620830.111 -19069139.669 15588400.447 10 0 60997 12600.00000 0 -6679956.407 -20839108.808 13095469.676 10 0 60997 13500.00000 0 -6848719.179 -22278170.579 10347999.299 10 0 60997 14400.00000 0 -7078853.487 -23353169.395 7399346.895 10 0 60997 15300.00000 0 -7317606.345 -24043109.816 4306810.367 10 0 60997 16200.00000 0 -7510185.674 -24339912.784 1130512.208 10 0 60997 17100.00000 0 -7602305.781 -24248646.386 -2067773.973 10 0 60997 18000.00000 0 -7542720.652 -23787221.259 -5225831.201 10 0 60997 18900.00000 0 -7285636.579 -22985563.535 -8282216.856 10 0 60997 19800.00000 0 -6792900.666 -21884300.395 -11177465.734 10 0 60997 20700.00000 0 -6035871.210 -20533014.076 -13855254.064 10 0 60997 21600.00000 0 -4996889.532 -18988138.482 -16263501.014 10 0 60997 22500.00000 0 -3670289.810 -17310587.597 -18355385.658 10 0 60997 23400.00000 0 -2062903.180 -15563216.126 -20090259.242 10 0 60997 24300.00000 0 -194033.901 -13808219.602 -21434434.970 10 0 60997 25200.00000 0 1905092.352 -12104583.344 -22361840.189 10 0 60997 26100.00000 0 4192385.622 -10505687.323 -22854518.707 10 0 60997 27000.00000 0 6616410.696 -9057166.921 -22902974.067 10 0 60997 27900.00000 0 9118305.129 -7795118.537 -22506347.757 10 0 60997 28800.00000 0 11634016.794 -6744724.184 -21672429.451 10 0 60997 29700.00000 0 14096768.210 -5919351.470 -20417499.636 10 0 60997 30600.00000 0 16439645.569 -5320165.270 -18766007.990 10 0 60997 31500.00000 0 18598205.148 -4936265.918 -16750094.041 10 0 60997 32400.00000 0 20512989.150 -4745346.687 -14408959.476 10 0 60997 33300.00000 0 22131846.757 -4714841.542 -11788104.297 10 0 60997 34200.00000 0 23411964.213 -4803513.708 -8938441.654 10 0 60997 35100.00000 0 24321519.933 -4963417.078 -5915308.467 10 0 60997 36000.00000 0 24840896.201 -5142146.925 -2777391.047 10 0 60997 36900.00000 0 24963397.503 -5285284.282 414413.396 10 0 60997 37800.00000 0 24695446.206 -5338930.228 3598177.187 10 0 60997 38700.00000 0 24056248.069 -5252222.690 6712141.622 10 0 60997 39600.00000 0 23076942.231 -4979729.096 9695912.077 10 0 60997 40500.00000 0 21799271.812 -4483613.572 12491625.668 10 0 60997 41400.00000 0 20273831.172 -3735486.895 15045069.024 10 0 60997 42300.00000 0 18557963.359 -2717860.743 17306724.776 10 0 60997 43200.00000 0 16713395.721 -1425144.428 19232726.946 10 0 60997 44100.00000 0 14803712.240 135858.697 20785707.271 10 0 60997 45000.00000 0 12891767.765 1945977.068 21935516.625 10 0 60997 45900.00000 0 11037151.480 3974219.254 22659808.126 10 0 60997 46800.00000 0 9293804.736 6178823.502 22944471.028 10 0 60997 47700.00000 0 7707891.854 8508766.334 22783907.236 10 0 60997 48600.00000 0 6316012.022 10905669.057 22181145.019 10 0 60997 49500.00000 0 5143826.194 13306024.472 21147787.418 10 0 60997 50400.00000 0 4205155.859 15643652.519 19703795.732 10 0 60997 51300.00000 0 3501590.913 17852283.849 17877111.482 10 0 60997 52200.00000 0 3022622.741 19868164.597 15703123.216 10 0 60997 53100.00000 0 2746296.738 21632574.229 13223987.529 10 0 60997 54000.00000 0 2640356.613 23094151.510 10487816.591 10 0 60997 54900.00000 0 2663832.062 24210931.212 7547747.250 10 0 60997 55800.00000 0 2769002.492 24952005.859 4460909.426 10 0 60997 56700.00000 0 2903653.310 25298742.315 1287313.770 10 0 60997 57600.00000 0 3013528.629 25245501.588 -1911319.517 10 0 60997 58500.00000 0 3044875.597 24799831.115 -5072767.300 10 0 60997 59400.00000 0 2946971.499 23982121.157 -8135521.288 10 0 60997 60300.00000 0 2674525.292 22824739.667 -11039992.354 10 0 60997 61200.00000 0 2189850.580 21370682.194 -13729676.993 10 0 60997 62100.00000 0 1464716.746 19671793.983 -16152262.387 10 0 60997 63000.00000 0 481798.719 17786639.462 -18260647.997 10 0 60997 63900.00000 0 -764336.948 15778109.191 -20013863.378 10 0 60997 64800.00000 0 -2266752.294 13710865.123 -21377864.345 10 0 60997 65700.00000 0 -4006185.526 11648731.574 -22326192.203 10 0 60997 66600.00000 0 -5951624.690 9652141.217 -22840483.638 10 0 60997 67500.00000 0 -8061384.071 7775742.683 -22910821.937 10 0 60997 68400.00000 0 -10284638.814 6066269.189 -22535923.355 10 0 60997 69300.00000 0 -12563354.181 4560756.353 -21723155.591 10 0 60997 70200.00000 0 -14834529.318 3285182.455 -20488388.559 10 0 60997 71100.00000 0 -17032662.452 2253586.528 -18855680.704 10 0 60997 72000.00000 0 -19092335.104 1467699.616 -16856807.211 10 0 60997 72900.00000 0 -20950807.991 917102.957 -14530639.370 10 0 60997 73800.00000 0 -22550520.793 579904.859 -11922387.141 10 0 60997 74700.00000 0 -23841391.846 423906.302 -9082719.603 10 0 60997 75600.00000 0 -24782822.171 408204.893 -6066780.324 10 0 60997 76500.00000 0 -25345320.544 485168.463 -2933116.709 10 0 60997 77400.00000 0 -25511682.060 602694.129 257455.816 10 0 60997 78300.00000 0 -25277671.354 706656.740 3443032.689 10 0 60997 79200.00000 0 -24652182.310 743442.775 6561819.256 10 0 60997 80100.00000 0 -23656867.958 662462.215 9553326.633 10 0 60997 81000.00000 0 -22325256.401 418532.018 12359541.257 10 0 60997 81900.00000 0 -20701389.952 -25969.727 14926045.629 10 0 60997 82800.00000 0 -18838044.472 -699270.153 17203068.797 10 0 60997 83700.00000 0 -16794603.207 -1618766.184 19146446.677 10 0 60997 84600.00000 0 -14634673.562 -2790048.369 20718474.143 10 0 60997 85500.00000 0 -12423545.753 -4206425.845 21888632.955 10 0 60998 0.00000 0 -10225598.772 -5848973.339 22634181.899 10 0 60998 900.00000 0 -8101759.771 -7687100.537 22940598.500 10 0 60998 1800.00000 0 -6107124.734 -9679619.325 22801863.016 10 0 60998 2700.00000 0 -4288834.718 -11776268.911 22220580.567 10 0 60998 3600.00000 0 -2684298.261 -13919634.726 21207937.577 10 0 60998 4500.00000 0 -1319832.162 -16047383.442 19783493.292 10 0 60998 5400.00000 0 -209776.923 -18094722.052 17974809.514 10 0 60998 6300.00000 0 643876.664 -19996979.463 15816924.773 10 0 60998 7200.00000 0 1251334.560 -21692203.374 13351682.190 10 0 60998 8100.00000 0 1634326.956 -23123664.177 10626923.162 10 0 60998 9000.00000 0 1824944.815 -24242160.933 7695561.834 10 0 60998 9900.00000 0 1864034.964 -25008032.359 4614557.943 10 0 60998 10800.00000 0 1799222.012 -25392787.770 1443807.902 10 0 60998 11700.00000 0 1682641.458 -25380288.739 -1755024.053 10 0 60998 12600.00000 0 1568480.793 -24967430.983 -4919711.319 10 0 60998 13500.00000 0 1510433.808 -24164297.198 -7988682.740 10 0 60998 14400.00000 0 1559177.150 -22993773.934 -10902228.157 10 0 60998 15300.00000 0 1759977.232 -21490648.401 -13603667.262 10 0 60998 16200.00000 0 2150530.126 -19700223.249 -16040458.166 10 0 60998 17100.00000 0 2759126.972 -17676507.663 -18165223.523 10 0 60998 18000.00000 0 3603223.511 -15480061.057 -19936673.814 10 0 60998 18900.00000 0 4688475.056 -13175580.115 -21320409.786 10 0 60998 19800.00000 0 6008278.363 -10829330.392 -22289588.658 10 0 60998 20700.00000 0 7543840.327 -8506530.028 -22825441.528 10 0 60998 21600.00000 0 9264771.195 -6268794.634 -22917632.507 10 0 60998 22500.00000 0 11130177.907 -4171749.507 -22564453.246 10 0 60998 23400.00000 0 13090212.209 -2262907.997 -21772849.663 10 0 60998 24300.00000 0 15088009.139 -579903.385 -20558280.869 10 0 60998 25200.00000 0 17061935.284 850853.346 -18944413.434 10 0 60998 26100.00000 0 18948053.128 2015035.364 -16962657.146 10 0 60998 27000.00000 0 20682698.917 2910747.186 -14651551.426 10 0 60998 27900.00000 0 22205066.614 3548344.438 -12056014.280 10 0 60998 28800.00000 0 23459690.191 3949735.437 -9226468.389 10 0 60998 29700.00000 0 24398720.738 4147195.531 -6217861.234 10 0 60998 30600.00000 0 24983903.360 4181745.481 -3088598.252 10 0 60998 31500.00000 0 25188171.320 4101163.387 100590.210 10 0 60998 32400.00000 0 24996790.904 3957714.958 3287826.125 10 0 60998 33300.00000 0 24408009.239 3805698.636 6411282.316 10 0 60998 34200.00000 0 23433178.105 3698909.798 9410378.956 10 0 60998 35100.00000 0 22096348.605 3688131.422 12226954.909 10 0 60998 36000.00000 0 20433353.687 3818757.479 14806391.394 10 0 60998 36900.00000 0 18490416.708 4128649.487 17098666.412 10 0 60998 37800.00000 0 16322343.913 4646316.906 19059319.979 10 0 60998 38700.00000 0 13990375.735 5389498.342 20650311.992 10 0 60998 39600.00000 0 11559785.933 6364203.827 21840756.633 10 0 60998 40500.00000 0 9097327.717 7564259.195 22607519.656 10 0 60998 41400.00000 0 6668632.237 8971372.740 22935667.419 10 0 60998 42300.00000 0 4335666.681 10555722.642 22818759.167 10 0 60998 43200.00000 0 2154356.703 12277042.057 22258976.902 10 0 60998 44100.00000 0 172471.098 14086158.043 21267090.041 10 0 60998 45000.00000 0 -1572144.063 15926921.506 19862254.943 10 0 60998 45900.00000 0 -3052909.010 17738448.890 18071652.439 10 0 60998 46800.00000 0 -4255376.161 19457582.996 15929969.408 10 0 60998 47700.00000 0 -5177582.609 21021470.736 13478733.518 10 0 60998 48600.00000 0 -5829874.938 22370150.269 10765513.139 10 0 60998 49500.00000 0 -6234214.159 23449039.057 7842997.221 10 0 60998 50400.00000 0 -6422990.500 24211218.006 4767972.631 10 0 60998 51300.00000 0 -6437398.586 24619415.038 1600218.725 10 0 60998 52200.00000 0 -6325442.352 24647603.836 -1598659.145 10 0 60998 53100.00000 0 -6139654.873 24282149.478 -4766433.864 10 0 60998 54000.00000 0 -5934630.686 23522451.845 -7841474.343 10 0 60998 54900.00000 0 -5764476.184 22381058.920 -10763952.225 10 0 60998 55800.00000 0 -5680287.286 20883244.629 -13477013.070 10 0 60998 56700.00000 0 -5727762.341 19066068.628 -15927888.382 10 0 60998 57600.00000 0 -5945052.421 16976957.392 -18068926.231 10 0 60998 58500.00000 0 -6360940.838 14671866.189 -19858519.978 10 0 60998 59400.00000 0 -6993429.626 12213099.071 -21261917.005 10 0 60998 60300.00000 0 -7848793.261 9666878.211 -22251891.859 10 0 60998 61200.00000 0 -8921139.978 7100764.180 -22809271.170 10 0 60998 62100.00000 0 -10192499.548 4581034.676 -22923300.665 10 0 60998 63000.00000 0 -11633434.110 2170130.552 -22591847.811 10 0 60998 63900.00000 0 -13204146.695 -75725.121 -21821436.745 10 0 60998 64800.00000 0 -14856041.182 -2108636.754 -20627115.333 10 0 60998 65700.00000 0 -16533668.584 -3890788.109 -19032157.365 10 0 60998 66600.00000 0 -18176978.347 -5395764.778 -17067605.898 10 0 60998 67500.00000 0 -19723780.637 -6609393.744 -14771666.745 10 0 60998 68400.00000 0 -21112316.725 -7530066.750 -12188963.906 10 0 60998 69300.00000 0 -22283829.966 -8168535.669 -9369671.345 10 0 60998 70200.00000 0 -23185029.822 -8547190.195 -6368537.962 10 0 60998 71100.00000 0 -23770345.790 -8698849.773 -3243824.601 10 0 60998 72000.00000 0 -24003876.761 -8665121.962 -56173.803 10 0 60998 72900.00000 0 -23860954.180 -8494397.524 3132565.735 10 0 60998 73800.00000 0 -23329253.387 -8239567.711 6260537.145 10 0 60998 74700.00000 0 -22409406.536 -7955560.705 9267072.504 10 0 60998 75600.00000 0 -21115091.269 -7696801.641 12093865.933 10 0 60998 76500.00000 0 -19472591.200 -7514703.684 14686100.087 10 0 60998 77400.00000 0 -17519846.250 -7455296.135 16993504.482 10 0 60998 78300.00000 0 -15305032.057 -7557089.700 18971325.559 10 0 60998 79200.00000 0 -12884727.041 -7849268.955 20581190.234 10 0 60998 80100.00000 0 -10321742.773 -8350288.342 21791846.750 10 0 60998 81000.00000 0 -7682707.009 -9066931.162 22579769.022 10 0 60998 81900.00000 0 -5035498.848 -9993871.740 22929613.209 10 0 60998 82800.00000 0 -2446641.523 -11113760.059 22834517.894 10 0 60998 83700.00000 0 21239.954 -12397826.451 22296242.049 10 0 60998 84600.00000 0 2311791.752 -13806982.313 21325137.826 10 0 60998 85500.00000 0 4377037.062 -15293372.100 19939958.152 10 0 60999 0.00000 0 6179127.890 -16802312.774 18167502.208 10 0 60999 900.00000 0 7691671.424 -18274541.395 16042103.764 10 0 60999 1800.00000 0 8900573.825 -19648675.468 13604973.745 10 0 60999 2700.00000 0 9804369.843 -20863786.028 10903405.742 10 0 60999 3600.00000 0 10414022.441 -21861973.475 7989861.466 10 0 60999 4500.00000 0 10752202.312 -22590838.430 4920952.604 10 0 60999 5400.00000 0 10852078.001 -23005742.835 1756338.901 10 0 60999 6300.00000 0 10755668.310 -23071765.222 -1442435.900 10 0 60999 7200.00000 0 10511827.389 -22765266.672 -4613147.017 10 0 60999 8100.00000 0 10173948.648 -22075000.373 -7694106.326 10 0 60999 9000.00000 0 9797485.716 -21002716.956 -10625370.186 10 0 60999 9900.00000 0 9437396.516 -19563239.205 -13349912.905 10 0 60999 10800.00000 0 9145619.735 -17784002.314 -15814742.165 10 0 60999 11700.00000 0 8968691.526 -15704078.483 -17971934.085 10 0 60999 12600.00000 0 8945604.089 -13372726.560 -19779567.327 10 0 60999 13500.00000 0 9105997.318 -10847527.313 -21202538.017 10 0 60999 14400.00000 0 9468760.327 -8192182.303 -22213239.796 10 0 60999 15300.00000 0 10041102.140 -5474068.202 -22792096.181 10 0 60999 16200.00000 0 10818130.820 -2761648.378 -22927935.442 10 0 60999 17100.00000 0 11782958.817 -121849.203 -22618201.357 10 0 60999 18000.00000 0 12907330.069 2382490.246 -21868996.358 10 0 60999 18900.00000 0 14152742.524 4694989.836 -20694956.752 10 0 60999 19800.00000 0 15472018.924 6767823.786 -19118962.860 10 0 60999 20700.00000 0 16811259.970 8563453.888 -17171689.946 10 0 60999 21600.00000 0 18112097.955 10055929.852 -14891008.797 10 0 60999 22500.00000 0 19314156.351 11231704.175 -12321247.612 10 0 60999 23400.00000 0 20357612.213 12089929.186 -9512329.494 10 0 60999 24300.00000 0 21185753.841 12642225.552 -6518802.273 10 0 60999 25200.00000 0 21747426.368 12911933.606 -3398779.420 10 0 60999 26100.00000 0 21999262.507 12932880.399 -212812.678 10 0 60999 27000.00000 0 21907604.712 12747715.667 2977281.699 10 0 60999 27900.00000 0 21450037.898 12405887.812 6109620.295 10 0 60999 28800.00000 0 20616468.177 11961346.010 9123450.162 10 0 60999 29700.00000 0 19409702.053 11470065.889 11960323.591 10 0 60999 30600.00000 0 17845501.402 10987503.411 14565227.397 10 0 60999 31500.00000 0 15952111.387 10566084.466 16887645.091 10 0 60999 32400.00000 0 13769280.402 10252835.942 18882531.761 10 0 60999 33300.00000 0 11346812.086 10087258.005 20511183.306 10 0 60999 34200.00000 0 8742708.830 10099527.089 21741983.711 10 0 60999 35100.00000 0 6020982.974 10309105.247 22551016.428 10 0 60999 36000.00000 0 3249225.470 10723814.545 22922528.465 10 0 60999 36900.00000 0 496031.831 11339415.846 22849238.413 10 0 60999 37800.00000 0 -2171608.990 12139710.350 22332482.467 10 0 60999 38700.00000 0 -4690855.569 13097160.589 21382195.330 10 0 60999 39600.00000 0 -7005380.277 14174005.842 20016725.825 10 0 60999 40500.00000 0 -9067463.424 15323826.324 18262490.021 10 0 60999 41400.00000 0 -10839728.812 16493491.498 16153467.673 10 0 60999 42300.00000 0 -12296448.942 17625411.595 13730550.759 10 0 60999 43200.00000 0 -13424365.763 18659998.226 11040755.890 10 0 60999 44100.00000 0 -14222993.073 19538230.850 8136315.106 10 0 60999 45000.00000 0 -14704388.172 20204220.812 5073662.318 10 0 60999 45900.00000 0 -14892402.883 20607664.387 1912334.958 10 0 60999 46800.00000 0 -14821445.983 20706080.513 -1286187.610 10 0 60999 47700.00000 0 -14534809.956 20466737.697 -4459685.747 10 0 60999 48600.00000 0 -14082633.583 19868187.577 -7546417.109 10 0 60999 49500.00000 0 -13519587.464 18901339.217 -10486325.535 10 0 60999 50400.00000 0 -12902381.405 17570027.670 -13222216.736 10 0 60999 51300.00000 0 -12287200.161 15891051.896 -15700877.078 10 0 60999 52200.00000 0 -11727176.922 13893679.597 -17874113.021 10 0 60999 53100.00000 0 -11270012.192 11618639.192 -19699690.574 10 0 60999 54000.00000 0 -10955839.195 9116640.768 -21142156.387 10 0 60999 54900.00000 0 -10815426.302 6446487.549 -22173524.682 10 0 60999 55800.00000 0 -10868792.389 3672856.598 -22773817.038 10 0 60999 56700.00000 0 -11124293.402 863841.004 -22931445.114 10 0 60999 57600.00000 0 -11578218.323 -1911644.452 -22643429.488 10 0 60999 58500.00000 0 -12214911.235 -4586486.645 -21915450.983 10 0 60999 59400.00000 0 -13007413.995 -7097918.113 -20761734.028 10 0 60999 60300.00000 0 -13918602.144 -9389876.866 -19204764.735 10 0 60999 61200.00000 0 -14902766.058 -11415084.898 -17274849.428 10 0 60999 62100.00000 0 -15907570.640 -13136760.235 -15009522.360 10 0 60999 63000.00000 0 -16876311.062 -14529892.617 -12452814.094 10 0 60999 63900.00000 0 -17750369.577 -15582031.124 -9654394.790 10 0 60999 64800.00000 0 -18471770.014 -16293552.413 -6668608.927 10 0 60999 65700.00000 0 -18985722.426 -16677399.937 -3553420.183 10 0 60999 66600.00000 0 -19243050.703 -16758306.524 -369286.959 10 0 60999 67500.00000 0 -19202400.913 -16571534.334 2822009.579 10 0 60999 68400.00000 0 -18832137.228 -16161186.298 5958562.184 10 0 60999 69300.00000 0 -18111845.472 -15578161.008 8979535.665 10 0 60999 70200.00000 0 -17033380.721 -14877837.822 11826343.288 10 0 60999 71100.00000 0 -15601414.471 -14117590.080 14443778.792 10 0 60999 72000.00000 0 -13833457.797 -13354231.317 16781082.338 10 0 60999 72900.00000 0 -11759358.707 -12641501.956 18792920.128 10 0 60999 73800.00000 0 -9420293.716 -12027702.052 20440259.247 10 0 60999 74700.00000 0 -6867294.586 -11553569.422 21691121.294 10 0 60999 75600.00000 0 -4159370.350 -11250492.106 22521200.769 10 0 60999 76500.00000 0 -1361301.321 -11139130.122 22914336.649 10 0 60999 77400.00000 0 1458804.548 -11228504.432 22862828.274 10 0 60999 78300.00000 0 4232092.930 -11515591.598 22367589.434 10 0 60999 79200.00000 0 6891576.123 -11985441.637 21438137.403 10 0 60999 80100.00000 0 9374670.408 -12611814.748 20092416.600 10 0 60999 81000.00000 0 11625553.327 -13358310.973 18356459.531 10 0 60999 81900.00000 0 13597243.573 -14179946.150 16263890.655 10 0 60999 82800.00000 0 15253317.390 -15025108.587 13855281.848 10 0 60999 83700.00000 0 16569190.259 -15837814.658 11177371.069 10 0 60999 84600.00000 0 17532910.548 -16560168.578 8282158.640 10 0 60999 85500.00000 0 18145432.113 -17134922.528 5225898.289 99